Wind_Speed
16 15 14 13 13 13 13 13 12 10 9 10 12 13 13 12 12 11 9 8 7 8 7 7 6 6 6 6 6 7 7 8 8 8 8 9 9 9 9 9 9 9 9 9 8 8 8 7 6
17 16 15 14 14 14 15 14 14 13 11 12 14 14 15 15 14 13 12 11 10 9 8 8 8 7 7 7 7 8 8 9 9 9 9 10 10 10 10 10 10 10 10 10 10 9 9 8 8
17 17 16 15 15 16 16 15 15 13 13 15 16 16 16 16 16 16 15 14 12 11 10 10 9 9 8 8 8 9 9 9 10 10 10 11 11 12 11 11 11 12 11 11 10 10 10 10 9
18 17 17 17 17 18 18 18 16 15 16 17 18 18 17 16 17 16 16 15 14 12 11 11 11 10 10 10 10 10 10 11 11 11 12 12 12 13 13 13 13 13 13 12 12 11 11 11 10
18 18 17 17 18 19 19 19 18 17 18 19 19 18 18 17 16 16 16 16 14 12 12 12 12 11 11 11 12 12 12 12 12 13 13 13 13 14 14 14 14 14 14 14 14 13 13 12 12
18 18 18 18 19 21 22 20 19 18 18 20 20 20 19 18 17 16 16 15 13 12 12 12 12 13 13 13 13 13 14 14 14 14 14 14 15 15 15 15 16 16 16 16 16 15 15 14 13
18 18 18 20 21 23 23 22 20 19 19 21 22 22 20 20 18 16 15 14 14 13 12 12 13 14 14 14 15 15 15 15 15 15 16 16 16 17 17 17 17 17 17 17 17 17 16 16 15
18 17 18 21 23 24 23 22 20 20 21 23 24 23 22 20 20 19 15 14 14 14 12 13 13 14 15 15 16 16 16 17 17 17 16 17 17 18 18 19 18 18 19 19 19 18 18 17 17
17 18 20 24 25 25 23 20 21 22 24 24 25 24 22 21 20 18 17 15 15 13 12 13 15 15 16 16 17 17 17 18 18 18 17 17 17 18 19 19 20 20 20 20 20 20 19 19 18
18 20 23 25 26 24 21 19 21 23 24 25 24 24 22 20 20 17 18 17 16 14 12 13 14 15 17 17 17 18 18 18 18 18 18 18 19 19 20 21 21 21 20 20 21 20 19 19 20
19 21 24 25 24 23 20 20 21 22 23 22 22 23 22 20 20 19 17 17 15 14 14 13 13 15 16 17 17 18 18 18 18 18 19 19 19 20 20 20 21 22 21 21 21 21 21 21 21
21 23 25 24 23 22 21 21 21 21 21 22 22 22 22 22 22 22 22 20 17 15 14 14 13 14 16 16 16 18 19 18 19 19 20 21 21 21 21 21 22 22 22 23 23 21 21 21 21
22 23 24 24 22 22 21 22 22 22 21 21 21 20 20 20 20 21 19 18 16 15 15 15 14 15 16 17 17 18 18 20 20 21 20 22 22 23 22 22 22 23 23 23 23 23 23 23 23
22 22 23 23 22 22 21 21 21 21 21 21 20 20 19 18 17 18 18 17 16 15 16 16 16 15 16 17 17 17 18 19 20 20 22 22 22 23 23 23 23 24 24 23 23 23 24 24 23
21 21 20 20 20 20 20 21 21 20 20 19 18 18 18 17 17 17 17 17 17 16 16 16 15 16 17 17 18 18 19 20 21 21 22 23 23 23 24 25 25 24 24 24 25 25 25 25 24
19 18 16 15 16 16 18 18 17 17 17 16 16 16 15 15 14 16 15 14 15 16 16 16 17 16 17 18 18 19 21 21 22 23 23 24 24 24 24 24 25 25 25 26 26 25 25 26 26
17 15 14 13 13 12 13 13 14 14 13 13 14 14 14 14 14 15 15 15 16 16 16 17 18 17 17 19 19 20 22 23 23 23 24 25 24 24 24 25 25 25 25 26 27 26 25 26 27
15 14 12 11 11 11 10 10 11 11 12 12 13 14 15 15 14 15 16 17 16 16 16 17 18 18 19 20 21 22 23 24 25 25 26 27 26 26 26 26 27 27 26 26 27 27 28 28 28
13 12 11 10 11 13 12 12 11 11 12 13 14 15 15 15 15 15 15 16 17 17 17 18 18 19 20 21 22 22 23 25 26 26 27 27 27 28 28 28 29 28 28 28 28 28 28 29 28
12 11 11 11 12 13 13 14 14 15 16 16 15 14 13 13 14 14 15 15 16 17 18 19 19 20 21 22 22 23 24 25 26 27 27 28 29 29 28 29 29 29 29 29 30 29 29 29 29
12 11 10 11 11 13 15 16 16 16 17 18 15 13 12 13 13 14 14 15 17 18 19 20 20 21 22 22 23 24 25 25 26 27 27 28 29 29 29 29 29 29 29 29 30 30 30 30 30
13 13 11 11 12 13 15 15 15 15 17 17 16 14 12 13 14 14 15 17 18 18 19 20 21 22 22 23 23 24 25 26 26 27 27 27 28 29 29 29 29 29 29 29 29 29 30 30 30
14 15 15 15 15 15 16 17 17 18 19 19 19 17 14 13 14 14 15 17 17 18 19 20 21 22 23 24 24 25 26 26 26 27 27 27 28 28 29 29 28 28 29 29 28 29 29 29 29
15 15 16 17 18 18 17 20 19 19 20 20 19 16 14 14 14 15 16 17 18 20 20 21 22 23 24 25 25 26 27 27 28 28 27 27 27 27 27 27 27 28 28 28 28 28 29 29 29
14 15 16 17 18 17 17 20 19 19 19 18 16 16 16 15 14 15 16 17 18 20 21 22 23 23 25 25 26 27 27 27 28 28 27 27 27 26 26 26 27 27 28 28 28 29 29 29 29
13 14 14 15 16 15 16 17 16 16 16 15 16 16 16 15 15 16 16 18 18 20 21 22 24 25 25 26 27 27 27 27 27 27 27 27 27 27 26 27 27 27 28 28 28 28 28 28 28
12 13 13 15 15 15 16 16 15 14 15 16 16 16 16 15 15 16 17 19 19 21 22 23 24 25 26 26 26 27 27 27 28 28 28 28 28 28 28 27 28 28 28 28 28 28 28 28 28
12 12 14 14 15 16 15 15 15 15 14 14 15 15 16 16 15 16 18 19 21 22 22 23 24 25 26 26 26 27 27 28 28 28 28 28 28 27 27 27 27 27 26 27 27 27 27 28 28
13 13 14 15 16 16 16 15 15 16 15 15 16 17 17 17 17 18 19 20 22 23 23 23 24 25 26 26 26 27 28 28 28 28 27 27 27 26 26 26 26 25 25 26 26 26 27 27 27
14 15 15 16 17 17 18 17 16 16 17 17 17 18 19 19 19 19 20 22 22 23 24 24 25 26 26 26 27 27 27 26 26 26 26 26 26 26 25 25 25 25 25 25 25 26 26 26 27
Wind_Direction
232 228 224 216 209 206 207 209 212 221 238 250 260 266 276 282 286 282 277 273 272 277 279 273 264 252 249 251 255 257 260 264 268 273 276 277 281 285 289 291 292 293 294 294 295 295 297 298 297
231 227 221 215 207 204 210 215 220 228 235 248 258 266 273 280 280 275 269 264 266 271 272 270 264 258 255 255 259 260 262 264 266 270 274 276 278 280 284 286 288 289 290 290 291 291 292 295 295
230 225 219 211 204 206 211 218 225 231 239 249 260 267 272 276 274 269 263 261 262 265 265 266 263 263 260 259 261 262 262 263 265 268 271 274 276 278 280 283 284 284 284 285 285 286 286 288 289
228 223 216 208 201 206 214 221 225 234 248 253 261 268 273 279 276 268 263 259 258 260 263 264 262 262 260 259 259 261 262 262 263 265 268 271 273 275 277 279 280 281 280 281 280 280 281 282 282
225 219 211 203 199 203 211 219 228 236 250 260 264 271 276 278 275 271 264 258 253 256 261 263 260 259 258 257 256 256 258 260 260 262 264 266 269 272 274 276 277 278 279 278 278 277 277 276 277
221 214 205 197 197 204 212 220 228 239 249 260 268 271 277 276 273 271 259 255 249 251 256 258 259 259 259 256 255 254 255 258 259 260 263 266 268 270 271 272 273 275 275 275 275 274 274 274 274
215 208 200 196 197 207 216 224 231 243 253 262 267 271 274 271 268 263 255 252 251 250 248 252 257 259 257 256 255 255 255 258 261 262 263 265 266 268 269 270 271 271 272 272 272 272 271 272 272
207 200 196 195 201 210 218 226 235 246 256 263 268 272 274 271 267 259 254 253 251 240 241 249 254 254 254 254 255 255 256 258 261 263 264 265 266 267 268 268 268 267 267 268 268 269 270 270 269
203 194 191 195 205 212 219 227 239 249 257 263 269 271 268 266 262 258 261 253 246 234 238 244 250 254 256 256 255 256 257 259 260 260 262 264 266 267 268 268 268 269 267 266 266 267 269 269 266
196 189 192 201 208 213 220 230 243 253 262 265 266 268 267 265 262 262 264 252 247 241 241 247 251 256 259 258 256 256 259 259 259 260 261 263 265 267 269 269 268 268 267 266 266 265 266 268 266
192 192 198 205 211 217 223 234 245 253 260 261 262 263 267 265 264 267 262 255 253 250 253 256 254 255 256 255 257 259 259 261 262 261 263 265 267 269 270 270 269 267 267 267 267 266 265 266 264
195 198 203 209 217 222 227 236 244 252 256 257 259 259 261 263 266 266 266 262 266 260 263 262 260 260 255 256 258 260 261 262 262 265 265 266 269 269 269 270 271 268 267 268 267 268 266 265 264
201 206 210 215 223 230 233 238 245 252 255 258 260 261 260 262 265 271 273 272 265 267 271 270 273 268 259 259 259 263 263 263 264 265 268 269 269 269 269 270 271 269 268 269 267 266 266 264 264
204 211 218 224 228 234 238 242 247 253 256 261 263 268 269 271 273 274 276 276 272 271 276 278 270 267 263 265 263 268 270 267 268 270 271 273 272 271 271 269 270 269 268 267 266 269 267 265 264
207 214 222 227 230 235 240 242 245 249 254 260 267 274 276 274 275 277 281 276 272 273 277 278 272 272 271 272 272 267 268 270 272 273 274 275 272 273 274 271 271 271 270 268 267 266 266 264 267
208 215 219 223 227 230 235 239 242 245 250 260 268 273 276 275 279 279 281 278 277 277 277 275 280 283 280 277 277 274 271 272 273 274 275 274 274 275 275 274 273 272 272 270 268 267 265 263 263
206 207 210 217 223 228 233 240 239 240 248 258 268 273 276 279 281 282 280 282 282 280 279 282 283 285 285 281 281 281 277 275 274 274 275 275 275 274 275 274 273 273 273 271 269 267 266 263 262
196 196 203 216 230 239 243 251 249 249 254 264 273 275 278 281 283 282 279 282 284 283 286 286 286 288 287 286 284 283 280 279 276 276 277 276 276 274 274 275 274 273 273 272 271 267 266 265 262
190 199 212 222 234 246 256 261 260 264 270 273 273 275 279 283 284 281 280 283 284 287 290 290 289 289 289 288 286 283 281 280 279 278 278 276 275 276 276 275 275 273 272 270 270 268 266 264 263
193 208 217 225 232 244 258 263 258 265 272 273 271 274 280 280 283 284 284 285 286 287 289 289 289 289 289 288 286 285 285 283 281 279 278 278 276 276 276 275 275 273 272 271 269 267 265 264 264
202 211 219 226 233 245 255 259 263 272 276 274 273 277 279 282 282 285 286 286 287 286 287 288 288 287 288 288 287 286 286 285 283 281 279 278 276 276 277 276 277 275 273 271 270 266 264 264 265
208 212 222 233 242 253 261 263 268 272 277 277 278 279 278 279 281 287 287 286 288 286 287 288 289 287 287 287 287 286 286 285 283 282 281 279 278 278 277 277 278 275 272 271 270 268 266 265 264
209 213 226 237 242 249 260 267 271 277 282 287 288 282 276 278 280 285 287 290 290 289 289 289 291 290 289 289 288 288 287 286 284 283 282 281 280 278 277 277 278 275 272 272 272 270 268 267 266
212 217 226 234 240 249 261 271 273 279 286 288 289 282 277 277 280 285 287 290 292 294 293 293 293 292 291 290 290 289 288 287 286 285 283 281 281 280 278 277 277 276 273 271 270 269 268 267 266
216 222 228 235 243 253 260 270 273 282 287 288 287 283 278 278 279 286 292 291 293 296 295 295 295 294 294 292 291 290 289 288 286 284 283 282 281 281 280 278 277 276 274 273 271 269 269 268 268
216 226 234 244 251 251 258 271 274 284 287 283 285 288 289 291 290 290 294 295 295 296 297 297 296 296 295 293 292 291 290 288 286 285 284 282 282 281 280 279 277 276 275 275 274 271 268 268 267
223 233 245 255 258 257 260 266 270 281 286 291 292 294 291 292 294 295 296 297 297 297 297 297 297 296 296 293 292 291 291 289 287 285 284 284 283 281 279 279 278 277 275 275 273 272 270 268 266
232 239 247 256 263 261 262 269 280 289 297 303 299 295 298 298 299 300 297 298 299 298 299 299 298 297 297 296 294 293 291 289 288 286 284 283 283 282 281 280 279 278 276 274 272 271 270 269 267
239 249 252 256 262 267 274 279 287 292 297 300 303 304 308 304 298 298 298 299 299 300 301 301 300 299 298 296 295 294 293 291 289 287 286 284 283 283 282 280 280 280 279 276 274 273 272 271 270
245 251 254 255 260 269 277 282 287 292 298 301 301 302 302 303 298 296 301 304 302 301 301 302 302 301 299 297 296 296 294 292 290 288 287 285 285 285 283 282 281 280 280 279 278 277 275 273 272
Height
5893 5895 5897 5899 5901 5902 5901 5901 5901 5902 5903 5903 5902 5903 5903 5904 5906 5908 5906 5905 5906 5906 5906 5906 5906 5906 5906 5906 5906 5906 5907 5907 5907 5907 5907 5907 5906 5906 5906 5906 5906 5905 5904 5904 5903 5902 5901 5901 5900
5891 5893 5895 5897 5898 5898 5899 5899 5899 5900 5901 5901 5901 5902 5903 5903 5903 5904 5904 5904 5904 5904 5904 5904 5904 5904 5905 5905 5905 5905 5905 5906 5906 5906 5906 5906 5905 5905 5905 5905 5904 5904 5903 5903 5902 5901 5900 5900 5899
5888 5890 5893 5895 5896 5896 5896 5896 5897 5898 5899 5899 5899 5900 5901 5901 5901 5901 5902 5902 5902 5902 5902 5903 5903 5903 5903 5904 5904 5904 5904 5904 5904 5904 5904 5904 5904 5904 5904 5903 5903 5902 5902 5901 5900 5900 5899 5898 5898
5885 5887 5890 5892 5893 5894 5894 5893 5894 5895 5896 5897 5898 5898 5899 5900 5899 5899 5898 5899 5899 5899 5900 5901 5901 5901 5902 5902 5902 5902 5902 5902 5902 5902 5902 5902 5902 5902 5902 5902 5901 5901 5900 5900 5899 5898 5897 5897 5896
5881 5884 5887 5889 5890 5890 5891 5891 5891 5892 5893 5894 5895 5896 5896 5898 5896 5895 5895 5895 5896 5897 5897 5898 5899 5899 5899 5900 5900 5900 5900 5900 5900 5900 5900 5900 5900 5900 5900 5899 5899 5899 5898 5898 5897 5896 5895 5895 5894
5878 5881 5883 5885 5886 5886 5887 5887 5888 5889 5890 5891 5892 5893 5893 5894 5894 5893 5892 5892 5892 5894 5895 5896 5896 5897 5897 5897 5897 5897 5897 5897 5897 5897 5897 5897 5897 5897 5897 5897 5896 5896 5896 5895 5894 5894 5893 5893 5892
5875 5878 5880 5882 5882 5883 5884 5884 5885 5886 5887 5888 5889 5890 5890 5890 5891 5890 5888 5888 5889 5890 5891 5892 5893 5893 5894 5894 5894 5894 5894 5894 5894 5895 5894 5894 5894 5894 5894 5893 5893 5893 5893 5892 5892 5891 5891 5890 5890
5871 5875 5877 5878 5878 5879 5881 5882 5883 5884 5884 5886 5887 5887 5887 5887 5886 5886 5885 5885 5886 5886 5887 5889 5889 5890 5890 5890 5890 5891 5891 5891 5891 5891 5891 5891 5890 5890 5890 5889 5889 5889 5889 5889 5888 5888 5888 5887 5887
5868 5872 5873 5874 5875 5876 5877 5879 5881 5882 5882 5883 5884 5884 5884 5883 5883 5882 5881 5881 5882 5883 5884 5885 5886 5887 5887 5887 5887 5887 5887 5887 5887 5887 5887 5887 5886 5886 5886 5885 5885 5885 5885 5885 5885 5884 5884 5884 5883
5865 5868 5870 5871 5872 5873 5874 5876 5878 5879 5880 5880 5880 5880 5880 5880 5879 5879 5878 5878 5879 5880 5881 5882 5883 5883 5883 5883 5883 5884 5883 5883 5883 5883 5883 5882 5882 5882 5881 5881 5881 5880 5880 5880 5880 5880 5880 5880 5879
5861 5864 5866 5867 5868 5870 5872 5873 5875 5877 5877 5877 5877 5877 5877 5878 5877 5876 5876 5875 5875 5876 5877 5878 5879 5879 5879 5879 5880 5879 5879 5879 5879 5879 5878 5878 5878 5877 5877 5876 5876 5875 5875 5876 5876 5876 5875 5875 5875
5859 5860 5862 5864 5865 5867 5869 5871 5872 5874 5875 5875 5874 5874 5874 5874 5874 5873 5874 5873 5873 5873 5873 5874 5875 5875 5876 5876 5876 5876 5875 5875 5874 5874 5874 5874 5873 5873 5872 5871 5871 5870 5870 5871 5871 5871 5871 5870 5870
5855 5857 5859 5861 5863 5865 5866 5868 5869 5870 5871 5870 5870 5871 5870 5870 5870 5870 5870 5869 5868 5869 5870 5870 5870 5871 5872 5872 5872 5872 5871 5871 5870 5869 5869 5868 5868 5868 5867 5867 5866 5866 5866 5866 5865 5866 5866 5866 5865
5852 5854 5857 5859 5860 5862 5864 5865 5867 5867 5867 5867 5868 5868 5868 5868 5866 5867 5867 5866 5865 5865 5866 5866 5866 5867 5867 5868 5867 5867 5866 5866 5865 5864 5864 5863 5863 5862 5862 5862 5861 5860 5860 5860 5860 5860 5861 5861 5860
5849 5852 5854 5856 5858 5860 5862 5863 5864 5864 5864 5864 5864 5864 5865 5865 5864 5864 5863 5862 5863 5863 5863 5862 5862 5863 5862 5862 5862 5861 5861 5861 5860 5859 5859 5858 5857 5857 5856 5856 5855 5855 5854 5854 5854 5854 5854 5855 5855
5847 5849 5852 5854 5855 5857 5860 5860 5860 5861 5861 5862 5862 5862 5862 5861 5861 5860 5859 5859 5858 5859 5859 5859 5859 5859 5858 5857 5856 5855 5855 5855 5855 5854 5853 5853 5852 5851 5850 5850 5849 5849 5848 5848 5848 5847 5848 5849 5849
5845 5847 5850 5852 5852 5854 5856 5856 5857 5858 5858 5859 5859 5859 5859 5858 5858 5857 5856 5856 5856 5856 5856 5854 5854 5854 5853 5852 5851 5850 5850 5849 5849 5848 5848 5847 5846 5845 5844 5843 5843 5842 5842 5841 5841 5841 5842 5842 5842
5843 5845 5847 5849 5850 5851 5852 5854 5854 5854 5855 5855 5856 5855 5855 5855 5855 5854 5853 5852 5852 5852 5851 5851 5849 5848 5847 5847 5846 5846 5845 5843 5842 5841 5841 5840 5840 5839 5838 5837 5836 5836 5835 5834 5834 5834 5835 5835 5836
5841 5842 5844 5846 5847 5848 5849 5850 5851 5850 5851 5852 5852 5851 5851 5852 5852 5851 5850 5848 5847 5847 5846 5846 5845 5843 5843 5842 5841 5840 5839 5837 5836 5835 5834 5833 5833 5832 5832 5831 5829 5829 5828 5827 5827 5827 5827 5828 5828
5839 5840 5841 5842 5844 5845 5846 5847 5848 5847 5847 5848 5848 5849 5848 5849 5848 5847 5846 5844 5843 5843 5842 5841 5840 5839 5838 5837 5836 5834 5833 5831 5830 5829 5828 5826 5826 5825 5824 5823 5822 5821 5821 5820 5820 5819 5820 5820 5821
5837 5838 5839 5841 5842 5843 5844 5844 5844 5844 5843 5843 5845 5845 5845 5845 5845 5844 5842 5841 5840 5839 5838 5837 5835 5834 5832 5831 5830 5828 5827 5825 5824 5822 5821 5820 5819 5818 5817 5816 5815 5814 5813 5812 5812 5812 5812 5813 5813
5835 5837 5838 5838 5840 5841 5842 5841 5842 5841 5841 5841 5841 5841 5841 5841 5840 5840 5839 5838 5837 5835 5834 5832 5830 5828 5827 5825 5824 5822 5820 5819 5817 5815 5814 5813 5812 5810 5809 5808 5807 5806 5805 5805 5804 5804 5804 5805 5805
5834 5835 5836 5837 5838 5839 5839 5839 5840 5838 5838 5838 5838 5837 5836 5836 5836 5835 5835 5834 5832 5831 5829 5827 5825 5823 5821 5819 5817 5815 5814 5812 5810 5808 5807 5805 5804 5803 5801 5801 5800 5799 5798 5797 5797 5797 5797 5797 5798
5831 5833 5834 5834 5835 5836 5836 5836 5836 5835 5835 5834 5833 5832 5832 5831 5831 5831 5830 5829 5827 5825 5823 5821 5819 5817 5815 5813 5811 5809 5807 5805 5803 5801 5799 5798 5796 5795 5794 5793 5792 5791 5791 5790 5790 5789 5789 5789 5790
5830 5831 5832 5832 5833 5833 5833 5832 5833 5832 5831 5830 5829 5829 5828 5827 5827 5826 5825 5823 5821 5820 5818 5815 5813 5810 5808 5806 5804 5802 5799 5797 5795 5794 5792 5791 5789 5788 5787 5786 5785 5784 5783 5783 5782 5782 5781 5782 5782
5826 5828 5830 5830 5830 5830 5830 5828 5829 5828 5827 5825 5825 5825 5824 5823 5822 5821 5820 5819 5816 5814 5812 5809 5806 5804 5801 5799 5797 5794 5792 5790 5788 5786 5785 5783 5782 5780 5779 5778 5777 5776 5775 5775 5774 5774 5774 5774 5774
5824 5825 5826 5827 5826 5826 5826 5825 5825 5824 5823 5822 5821 5820 5820 5819 5817 5816 5815 5813 5811 5808 5806 5803 5800 5797 5794 5792 5789 5787 5785 5783 5781 5779 5777 5776 5774 5773 5772 5770 5769 5768 5767 5766 5766 5766 5765 5765 5766
5822 5823 5823 5823 5823 5822 5822 5822 5822 5821 5820 5819 5817 5816 5815 5814 5812 5811 5809 5808 5805 5802 5799 5796 5793 5790 5788 5785 5782 5779 5777 5775 5773 5771 5770 5768 5766 5765 5764 5762 5761 5760 5759 5758 5758 5758 5757 5757 5757
5819 5820 5819 5820 5819 5819 5818 5821 5819 5817 5816 5815 5813 5812 5810 5809 5807 5806 5804 5802 5799 5796 5793 5789 5787 5784 5781 5778 5775 5772 5770 5768 5765 5764 5762 5760 5758 5757 5756 5755 5753 5752 5751 5751 5750 5749 5749 5749 5749
5816 5816 5816 5817 5816 5816 5815 5818 5815 5813 5812 5811 5809 5807 5806 5804 5802 5800 5798 5795 5792 5789 5786 5783 5779 5777 5774 5771 5768 5765 5762 5760 5758 5756 5754 5752 5751 5750 5748 5747 5746 5745 5744 5743 5742 5741 5741 5740 5740